{"data":{"norad_id":58539,"epoch":"2026-09-20T21:36:19.181664Z","epoch_age_seconds":112316,"freshness":"FRESH","line1":"1 58539U 23192J   26263.90022201 -.00000091  00000+0  84425-5 0  9990","line2":"2 58539  53.1589 231.7056 0001498  87.5306 272.5868 15.34385318155930","mean_motion":15.34385318,"eccentricity":0.0001498,"inclination_deg":53.1589,"raan_deg":231.7056,"arg_perigee_deg":87.5306,"mean_anomaly_deg":272.5868,"bstar":8.4425e-6,"rev_number":15593,"period_min":93.848656077925,"perigee_km":461.72211414815,"apogee_km":463.77164295817,"semimajor_km":6840.8838785532,"source":"CELESTRAK","updated_at":"2026-09-21T09:00:33.913513Z"}}